STARLINK-11160, 60125

Orbit data source: Space-Track

STARLINK-11160, 60125 is a payload satellite owned by SpaceX/Seattle (US) in LEO that was launched on Mon, 24 Jun 2024 UTC via an FALCON 9 launch vehicle from the Air Force Western Test Range (AFWTR). Payload-class satellites include a variety of spacecraft equipped with specific instruments for various scientific and technological missions. These include communications satellites like Starlink; space stations such as the ISS; scientific satellites like the Hubble; Earth observation satellites from companies like Planet Labs, Umbra, and HawkEye 360; GPS; miniature CubeSats for education and research; and military/defense satellites.

Loading next visibility...
Identifier
60125, 2024-118N
Orbit
LEO
Country
Flag of USUS
Related business
Manufacturer
SpaceX/Seattle
Mission
Operational Commercial Communications
Bus & Motor
STARLINK V2MD, Unknown motor
Mass
960 kg wet, ~910 kg dry
Launch date (UTC)
2024-06-24 (1 year ago)
Launch vehicle
FALCON 9
Launch site
Air Force Western Test Range (AFWTR)
Object type
Payload
Rocket body
Debris
Shape & HBR
Box + 2 Pan, 18.1 m
Radar Cross Section
36.964 m², Large (>1 m²)

Expand to show TLE details & history
Last TLE update: 9 hours ago

TLE from 9 hours ago
0 STARLINK-11160
1 60125U 24118N   25299.91054746  .00000919  00000-0  12437-4 0  9993
2 60125  53.1581 160.6072 0000934  92.4754 267.6371 15.69709694 76986
Epoch: 2025-10-26T21:51Z
TLE epoch observation values (Epoch: 2025-10-26T21:51:11.300Z)
Latitude
-0.00001°
Longitude
157.29015°
Altitude
360.668 km
Speed
7.694 km/s
True Right ascension
10h 42m 25s
True Declination
0° 00' 00"
Sunlit
Object was in daylight at epoch
Visualization orbit readout
Latitude
Unknown
Longitude
Unknown
Altitude
Unknown
Speed
Unknown
Apparent Right ascension
Unknown
Apparent Declination
Unknown
Sunlit
N/A
Visualization observer readout
Local Sidereal Time
01:57:58
Azimuth
Unknown
Elevation
Unknown
Doppler factor
Unknown
Orbital elements
Apogee altitude
360.618 km
Perigee altitude
359.359 km
Semi-major axis
6,738.126 km
Eccentricity
0.00009
Inclination
53.1581°
RAAN
160.6072°
Arg. of periapsis
92.4754°
True anomaly
267.62641°
Mean anomaly
267.6371°
Eccentric anomaly
267.63175°
Mean motion
3.92405 °/min
Orbital period
91.74 mins
BSTAR
0.000012437
Loading maneuver chart data...
Computing Atmospheric mass density...
Loading historical data...
Loading historical data...
Loading historical data...
Loading historical data...
Loading historical data...
Loading historical data...
Loading historical data...

Documentation

Showing up to 5 results
|